EA1HTW-1 Weather Reports


Display with metric or nautical units.
time (UTC)temp
F
wind
direction
speed
MPH
gust
MPH
rain 1hr
in
rain 24hr
in
rain mn
in
humidity
%
barometer
mb
20260507001932 44 150 0.0 0.0 0.00 0.00 0.00 94 984.2
20260507000930 45 14 0.0 0.0 0.00 0.00 0.00 94 984.4
20260506234929 45 338 0.0 1.0 0.00 0.00 0.00 93 984.7
20260506233931 45 333 0.0 0.0 0.00 0.00 0.00 93 984.6
20260506231930 45 341 0.0 0.0 0.00 0.00 0.00 92 984.6
20260506230930 46 62 0.0 2.0 0.00 0.00 0.00 92 984.7
20260506225929 46 338 0.0 0.0 0.00 0.00 0.00 91 984.8
20260506224930 47 338 0.0 0.0 0.00 0.00 0.00 91 984.8
20260506223930 47 338 0.0 0.0 0.00 0.00 0.00 90 984.9
20260506222929 48 338 0.0 0.0 0.00 0.00 0.00 90 985.0
20260506221930 49 0 0.0 0.0 0.00 0.00 0.00 89 985.0
20260506220928 49 90 0.0 0.0 0.00 0.00 0.00 89 985.1
20260506214929 49 126 0.0 1.0 0.00 0.00 0.00 88 985.3
20260506213931 50 158 0.0 1.0 0.00 0.00 0.00 87 985.2
20260506212930 50 126 0.0 0.0 0.00 0.00 0.00 86 985.4
20260506211927 50 135 1.0 2.0 0.00 0.00 0.00 86 985.3
20260506210930 51 121 0.0 0.0 0.00 0.00 0.00 85 985.2
20260506205928 51 130 1.0 2.0 0.00 0.00 0.00 84 985.4
20260506204929 51 103 1.0 1.0 0.00 0.00 0.00 83 985.2
20260506203930 51 135 0.0 0.0 0.00 0.00 0.00 83 985.3
20260506202930 51 112 0.0 1.0 0.00 0.00 0.00 82 985.4
20260506201929 52 154 1.0 1.0 0.00 0.00 0.00 81 985.2
20260506200930 52 124 0.0 2.0 0.00 0.00 0.00 80 985.2
20260506195929 53 158 0.0 0.0 0.00 0.00 0.00 79 985.2
20260506194929 53 148 0.0 0.0 0.00 0.00 0.00 78 985.0
20260506193930 54 131 1.0 1.0 0.00 0.00 0.00 76 984.8
20260506191930 55 161 1.0 2.0 0.00 0.00 0.00 74 984.8
20260506190930 55 213 1.0 3.0 0.00 0.00 0.00 72 984.7
20260506184929 56 235 1.0 1.0 0.00 0.00 0.00 73 984.6
20260506183929 57 291 0.0 1.0 0.00 0.00 0.00 74 984.7
20260506181929 57 114 1.0 3.0 0.00 0.00 0.00 73 984.4
20260506180929 57 150 1.0 3.0 0.00 0.00 0.00 71 984.4
20260506173928 58 137 3.0 13.0 0.00 0.00 0.00 70 984.7
20260506171928 59 180 1.0 1.0 0.00 0.00 0.00 69 984.7
20260506170931 59 225 1.0 2.0 0.00 0.00 0.00 69 984.9
20260506164930 59 202 0.0 1.0 0.00 0.00 0.00 71 985.1
20260506163930 59 113 0.0 1.0 0.00 0.00 0.00 69 985.0
20260506162929 58 202 2.0 3.0 0.00 0.00 0.00 70 985.0
20260506161928 59 217 1.0 5.0 0.00 0.00 0.00 69 985.0
20260506160930 59 159 1.0 5.0 0.00 0.00 0.00 68 985.1
20260506155927 61 148 3.0 7.0 0.00 0.00 0.00 67 985.2
20260506153928 61 212 1.0 5.0 0.00 0.00 0.00 67 985.1
20260506153211 62 202 3.0 7.0 0.00 0.00 0.00 63 985.4
20260506152930 62 202 3.0 7.0 0.00 0.00 0.00 63 985.4
20260506151927 61 264 2.0 5.0 0.00 0.00 0.00 65 985.4
20260506150928 60 106 3.0 7.0 0.00 0.00 0.00 66 985.5
20260506145930 58 217 3.0 8.0 0.00 0.00 0.00 69 985.7
20260506144930 57 186 2.0 5.0 0.00 0.01 0.00 72 985.7
20260506143928 57 191 1.0 6.0 0.00 0.01 0.00 73 985.9
20260506140928 61 108 2.0 6.0 0.00 0.01 0.00 67 985.8
20260506135928 59 180 2.0 8.0 0.00 0.01 0.00 67 986.0
20260506134929 60 122 5.0 7.0 0.00 0.01 0.00 69 986.1
20260506133928 60 205 3.0 7.0 0.00 0.01 0.00 70 986.1
20260506130929 60 180 2.0 6.0 0.00 0.07 0.00 69 986.0
20260506125928 60 150 5.0 9.0 0.00 0.07 0.00 70 986.1
20260506124928 60 119 5.0 12.0 0.00 0.07 0.00 72 986.3
20260506123928 64 98 5.0 9.0 0.00 0.13 0.00 67 986.2
20260506122929 63 172 1.0 5.0 0.00 0.14 0.00 60 986.5
20260506121928 63 5 2.0 7.0 0.00 0.14 0.00 58 986.4
20260506120928 62 172 3.0 7.0 0.00 0.14 0.00 60 986.6
20260506115929 60 87 3.0 6.0 0.00 0.14 0.00 68 986.7
20260506114928 60 92 1.0 5.0 0.00 0.14 0.00 69 987.0
20260506110928 59 161 3.0 7.0 0.00 0.17 0.00 71 987.6
20260506105928 59 181 1.0 3.0 0.00 0.17 0.00 70 987.4
20260506104929 58 232 1.0 2.0 0.00 0.17 0.00 74 987.6
20260506103928 57 350 0.0 1.0 0.00 0.17 0.00 73 987.7
20260506102926 56 109 1.0 3.0 0.00 0.17 0.00 79 987.8
20260506101929 55 135 1.0 2.0 0.00 0.17 0.00 82 987.8
20260506100928 56 98 1.0 2.0 0.00 0.17 0.00 83 987.7
20260506095927 55 148 1.0 3.0 0.00 0.17 0.00 85 987.8
20260506092926 53 183 1.0 5.0 0.00 0.17 0.00 90 988.0
20260506090928 52 135 1.0 3.0 0.00 0.18 0.00 94 987.8
20260506085927 51 131 1.0 2.0 0.00 0.18 0.00 95 987.9
20260506084927 50 90 1.0 2.0 0.00 0.18 0.00 96 988.0
20260506083926 50 140 1.0 3.0 0.00 0.18 0.00 96 987.9
20260506082927 50 107 0.0 1.0 0.00 0.18 0.00 97 987.8
20260506081927 49 292 0.0 0.0 0.00 0.18 0.00 97 987.8
20260506080928 49 292 0.0 0.0 0.00 0.18 0.00 97 987.8
20260506072929 46 225 0.0 1.0 0.00 0.18 0.00 97 987.7
20260506070926 45 22 0.0 0.0 0.00 0.18 0.00 97 987.9
20260506060926 43 54 0.0 0.0 0.00 0.18 0.00 97 987.5
20260506050927 44 0 1.0 2.0 0.00 0.18 0.00 97 986.9
20260506044926 43 90 0.0 0.0 0.00 0.18 0.00 97 987.0
20260506041927 43 47 1.0 1.0 0.00 0.18 0.00 96 987.5
20260506040928 43 22 0.0 0.0 0.00 0.18 0.00 96 987.5
20260506035927 44 22 0.0 0.0 0.00 0.18 0.00 96 987.4
20260506033926 45 0 0.0 1.0 0.00 0.18 0.00 96 987.4
20260506030927 45 22 0.0 0.0 0.00 0.18 0.00 96 987.6
20260506025927 45 22 0.0 0.0 0.00 0.18 0.00 96 987.8
20260506024928 45 45 0.0 0.0 0.00 0.19 0.00 96 987.6
20260506023926 46 22 0.0 0.0 0.00 0.19 0.00 96 987.7
20260506022927 46 0 0.0 0.0 0.00 0.19 0.00 96 987.6
20260506021927 46 0 0.0 0.0 0.00 0.19 0.00 96 987.7
20260506020928 46 0 0.0 0.0 0.00 0.19 0.00 96 987.7
20260506015926 47 0 0.0 0.0 0.00 0.19 0.00 96 988.0
20260506014928 46 338 0.0 1.0 0.00 0.19 0.00 96 987.9
20260506013926 46 202 0.0 0.0 0.00 0.19 0.00 95 988.0
20260506013046 47 90 0.0 0.0 0.00 0.19 0.00 95 988.2
20260506012927 47 90 0.0 0.0 0.00 0.19 0.00 95 988.2
20260506011926 47 90 0.0 0.0 0.00 0.19 0.00 95 988.3
20260506010928 46 90 0.0 0.0 0.00 0.19 0.00 95 988.3
20260506004925 47 90 0.0 0.0 0.00 0.19 0.00 95 988.5
20260506003925 47 90 0.0 0.0 0.00 0.19 0.00 95 988.6
20260506002926 46 90 0.0 0.0 0.00 0.19 0.00 95 988.6